TimeCDT,TemperatureF,Dew PointF,Humidity,Sea Level PressureIn,VisibilityMPH,Wind Direction,Wind SpeedMPH,Gust SpeedMPH,PrecipitationIn,Events,Conditions,WindDirDegrees,DateUTC
12:53 AM,54.0,48.9,83,30.04,10.0,Calm,Calm,-,N/A,,Clear,0,2012-11-02 05:53:00
1:53 AM,54.0,48.9,83,30.04,10.0,Calm,Calm,-,N/A,,Clear,0,2012-11-02 06:53:00
2:53 AM,54.0,48.0,80,30.04,10.0,Calm,Calm,-,N/A,,Clear,0,2012-11-02 07:53:00
3:53 AM,53.1,48.9,86,30.04,10.0,Calm,Calm,-,N/A,,Clear,0,2012-11-02 08:53:00
4:38 AM,53.6,50.0,88,30.04,1.8,Calm,Calm,-,N/A,,Clear,0,2012-11-02 09:38:00
4:45 AM,51.8,50.0,94,30.04,3.0,Calm,Calm,-,N/A,,Clear,0,2012-11-02 09:45:00
4:53 AM,53.1,50.0,89,30.04,10.0,Calm,Calm,-,N/A,,Clear,0,2012-11-02 09:53:00
5:53 AM,53.1,48.9,86,30.04,10.0,Calm,Calm,-,N/A,,Clear,0,2012-11-02 10:53:00
6:53 AM,53.1,50.0,89,30.05,3.0,Calm,Calm,-,N/A,,Clear,0,2012-11-02 11:53:00
7:53 AM,57.0,55.0,93,30.06,10.0,Calm,Calm,-,N/A,,Clear,0,2012-11-02 12:53:00
8:53 AM,66.0,57.9,75,30.08,10.0,Calm,Calm,-,N/A,,Clear,0,2012-11-02 13:53:00
9:53 AM,71.1,60.1,68,30.09,10.0,SSE,3.5,-,N/A,,Clear,150,2012-11-02 14:53:00
10:53 AM,73.0,60.1,64,30.09,10.0,Variable,4.6,-,N/A,,Clear,0,2012-11-02 15:53:00
11:53 AM,75.0,61.0,62,30.07,10.0,Variable,4.6,-,N/A,,Clear,0,2012-11-02 16:53:00
12:53 PM,75.9,60.1,58,30.05,10.0,WSW,8.1,-,N/A,,Clear,250,2012-11-02 17:53:00
1:53 PM,75.9,63.0,64,30.02,10.0,SW,6.9,-,N/A,,Clear,230,2012-11-02 18:53:00
2:53 PM,75.0,64.0,69,30.01,10.0,SW,8.1,-,N/A,,Clear,230,2012-11-02 19:53:00
3:53 PM,75.0,66.0,73,30.00,10.0,WSW,9.2,17.3,N/A,,Clear,240,2012-11-02 20:53:00
4:53 PM,73.9,66.0,76,30.00,10.0,SW,8.1,-,N/A,,Clear,230,2012-11-02 21:53:00
5:53 PM,72.0,66.9,84,30.00,7.0,WSW,4.6,-,N/A,,Clear,240,2012-11-02 22:53:00
6:53 PM,72.0,66.0,81,30.01,10.0,WSW,5.8,-,N/A,,Clear,240,2012-11-02 23:53:00
7:53 PM,71.1,66.9,87,30.02,10.0,Variable,4.6,-,N/A,,Clear,0,2012-11-03 00:53:00
8:53 PM,71.1,66.9,87,30.04,10.0,Variable,4.6,-,N/A,,Clear,0,2012-11-03 01:53:00
9:53 PM,71.1,66.9,87,30.05,9.0,Variable,4.6,-,N/A,,Clear,0,2012-11-03 02:53:00
10:53 PM,70.0,66.0,87,30.06,8.0,Variable,3.5,-,N/A,,Clear,0,2012-11-03 03:53:00
11:53 PM,70.0,66.0,87,30.06,8.0,Variable,3.5,-,N/A,,Clear,0,2012-11-03 04:53:00